Lee's Summit, MO

12:24 PM CST on November 18, 2017 (GMT -0600)
Lee's Summit Municipal

Weather History for KLXT - June, 2013

Change the Weather History Date:

Friday, June 28, 2013

  Actual Average (KMKC) Record (KMKC)
Temperature  
Mean Temperature 75 °F -  
Max Temperature 84 °F 84 °F 106 °F (2012)
Min Temperature 66 °F 67 °F 62 °F (2004)
Cooling Degree Days 10    
Growing Degree Days 25 (Base 50)    
Moisture  
Dew Point 63 °F    
Average Humidity 70    
Maximum Humidity 97    
Minimum Humidity 39    
Precipitation  
Precipitation 0.03 in - - ()
Sea Level Pressure  
Sea Level Pressure 29.91 in    
Wind  
Wind Speed 6 mph (WNW)    
Max Wind Speed 16 mph    
Max Gust Speed 22 mph    
Visibility 9 miles    
Events Rain    
Averages and records for this station are not official NWS values.
T = Trace of Precipitation, MM = Missing Value Source: NWS Daily Summary

Daily Weather History Graph

Daily Weather History Graph

Search for Another Location

Airport or City:

Trip Planner

Search our weather history database for the weather conditions in past years. The results will help you decide how hot, cold, wet, or windy it might be!

Date:

Astronomy

Jun. 28, 2013 Rise Set
Actual Time 5:54 AM CDT 8:47 PM CDT
Civil Twilight 5:22 AM CDT 9:19 PM CDT
Nautical Twilight 4:42 AM CDT 9:59 PM CDT
Astronomical Twilight 3:55 AM CDT 10:45 PM CDT
Moon No Moon Rise 11:59 AM CDT (6/28)
Length of Visible Light 15h 56m
Length of Day
14h 52m
Waning Gibbous, 66% of the Moon is Illuminated
Jun 28
Waning Gibbous
Jun 29
Last Quarter
Jul 8
New
Jul 15
First Quarter
Jul 22
Full

Hourly Weather History & Observations

Time (CDT) Temp. Heat Index Dew Point Humidity Pressure Visibility Wind Dir Wind Speed Gust Speed Precip Events Conditions
12:10 AM 69.8 °F - 66.2 °F 88% 29.96 in 10.0 mi East 4.6 mph - 0.00 in Rain Light Rain
12:53 AM 70.0 °F - 66.0 °F 87% 29.94 in 10.0 mi Calm Calm - 0.00 in   Scattered Clouds
1:53 AM 69.1 °F - 66.9 °F 93% 29.93 in 10.0 mi NE 3.5 mph - 0.03 in   Clear
2:53 AM 66.9 °F - 66.0 °F 97% 29.90 in 10.0 mi NW 4.6 mph - N/A   Clear
3:53 AM 66.9 °F - 66.0 °F 97% 29.90 in 9.0 mi Calm Calm - N/A   Clear
4:07 AM 66.2 °F - 64.4 °F 94% 29.92 in 1.8 mi WSW 3.5 mph - N/A   Clear
4:25 AM 66.2 °F - 64.4 °F 94% 29.92 in 4.0 mi West 4.6 mph - N/A   Clear
4:53 AM 66.0 °F - 64.9 °F 96% 29.91 in 9.0 mi WSW 4.6 mph - N/A   Clear
5:53 AM 66.9 °F - 64.9 °F 93% 29.92 in 6.0 mi WSW 4.6 mph - N/A   Clear
6:53 AM 69.1 °F - 66.9 °F 93% 29.92 in 3.0 mi WSW 5.8 mph - N/A   Clear
7:21 AM 69.8 °F - 68.0 °F 94% 29.95 in 4.0 mi West 4.6 mph - N/A   Partly Cloudy
7:53 AM 71.1 °F - 68.0 °F 90% 29.93 in 8.0 mi West 5.8 mph - N/A   Clear
8:01 AM 71.6 °F - 68.0 °F 88% 29.95 in 8.0 mi West 6.9 mph - N/A   Partly Cloudy
8:53 AM 75.0 °F - 70.0 °F 84% 29.93 in 10.0 mi WNW 5.8 mph - N/A   Clear
9:53 AM 79.0 °F - 69.1 °F 72% 29.93 in 10.0 mi Variable 5.8 mph - N/A   Clear
10:53 AM 81.0 °F 83.8 °F 68.0 °F 65% 29.92 in 10.0 mi NW 9.2 mph - N/A   Scattered Clouds
11:53 AM 82.9 °F 85.8 °F 68.0 °F 60% 29.93 in 10.0 mi NW 11.5 mph - N/A   Partly Cloudy
12:53 PM 84.0 °F 84.5 °F 62.1 °F 47% 29.92 in 10.0 mi North 12.7 mph 18.4 mph N/A   Clear
1:53 PM 84.0 °F 84.0 °F 60.1 °F 44% 29.91 in 10.0 mi NW 15.0 mph - N/A   Clear
2:53 PM 84.9 °F 84.4 °F 59.0 °F 41% 29.89 in 10.0 mi NNW 11.5 mph 20.7 mph N/A   Clear
3:53 PM 84.9 °F 84.2 °F 57.9 °F 40% 29.88 in 10.0 mi North 16.1 mph - N/A   Clear
4:53 PM 84.9 °F 84.4 °F 59.0 °F 41% 29.87 in 10.0 mi NNW 10.4 mph 21.9 mph N/A   Clear
5:53 PM 82.9 °F 82.8 °F 59.0 °F 44% 29.87 in 10.0 mi NW 10.4 mph 18.4 mph N/A   Partly Cloudy
6:53 PM 82.9 °F 82.1 °F 55.9 °F 39% 29.86 in 10.0 mi NNW 15.0 mph - N/A   Scattered Clouds
7:53 PM 81.0 °F 80.7 °F 55.0 °F 41% 29.86 in 10.0 mi NNW 12.7 mph - N/A   Partly Cloudy
8:53 PM 77.0 °F - 55.0 °F 47% 29.86 in 10.0 mi NW 6.9 mph - N/A   Clear
9:53 PM 75.0 °F - 55.9 °F 51% 29.86 in 10.0 mi WNW 5.8 mph - N/A   Clear
10:53 PM 73.0 °F - 57.0 °F 57% 29.86 in 10.0 mi WNW 5.8 mph - N/A   Clear
11:53 PM 71.1 °F - 57.0 °F 61% 29.85 in 10.0 mi WNW 6.9 mph - N/A   Clear